| time (UTC) | temp C | wind direction | speed KPH | gust KPH | rain 1hr cm | rain 24hr cm | rain mn cm | humidity % | barometer mb |
| 20260504050017 | 21 | 292 | 16.1 | 0.0 | 0.00 | 8.94 | 0.00 | 49 | 1009.6 |
| 20260504043017 | 21 | 337 | 6.4 | 0.0 | 0.00 | 8.94 | 0.00 | 49 | 1009.5 |
| 20260504040016 | 21 | 315 | 11.3 | 0.0 | 0.00 | 8.94 | 0.00 | 49 | 1009.3 |
| 20260504033015 | 22 | 315 | 8.0 | 0.0 | 0.00 | 8.94 | 0.00 | 49 | 1008.9 |
| 20260504030014 | 23 | 225 | 9.7 | 0.0 | 0.00 | 8.94 | 0.00 | 46 | 1008.9 |
| 20260504023013 | 24 | 315 | 14.5 | 0.0 | 0.00 | 8.94 | 0.00 | 46 | 1009.2 |
| 20260504020012 | 23 | 270 | 8.0 | 0.0 | 0.00 | 8.94 | 0.00 | 50 | 1009.2 |
| 20260504013011 | 22 | 292 | 12.9 | 0.0 | 0.00 | 8.94 | 0.00 | 54 | 1009.2 |
| 20260504010011 | 22 | 247 | 8.0 | 0.0 | 0.00 | 8.94 | 0.00 | 56 | 1009.2 |
| 20260504003010 | 20 | 270 | 6.4 | 0.0 | 0.00 | 8.94 | 0.00 | 63 | 1009.1 |
| 20260504000009 | 18 | 270 | 0.0 | 0.0 | 0.00 | 8.94 | 0.00 | 68 | 1008.6 |
| 20260503233008 | 18 | 292 | 6.4 | 0.0 | 0.00 | 8.94 | 0.00 | 70 | 1008.4 |
| 20260503230007 | 17 | 292 | 1.6 | 0.0 | 0.00 | 8.94 | 0.00 | 72 | 1008.1 |
| 20260503223005 | 17 | 225 | 4.8 | 0.0 | 0.00 | 8.94 | 0.00 | 75 | 1007.5 |
| 20260503220004 | 17 | 202 | 3.2 | 0.0 | 0.00 | 8.94 | 0.00 | 77 | 1007.2 |
| 20260503213004 | 16 | 157 | 3.2 | 0.0 | 0.00 | 8.94 | 0.00 | 77 | 1006.3 |
| 20260503210002 | 16 | 292 | 9.7 | 0.0 | 0.00 | 8.94 | 0.00 | 77 | 1005.9 |
| 20260503203024 | 16 | 180 | 3.2 | 0.0 | 0.00 | 8.94 | 0.00 | 81 | 1005.6 |
| 20260503200001 | 16 | 247 | 0.0 | 0.0 | 0.00 | 8.94 | 0.00 | 83 | 1005.2 |
| 20260503193000 | 16 | 292 | 3.2 | 0.0 | 0.00 | 8.94 | 0.00 | 85 | 1004.8 |
| 20260503185959 | 16 | 0 | 0.0 | 0.0 | 0.00 | 8.94 | 0.00 | 86 | 1004.4 |
| 20260503180019 | 17 | 157 | 3.2 | 0.0 | 0.30 | 8.94 | 0.00 | 87 | 1003.4 |
| 20260503173019 | 17 | 247 | 9.7 | 0.0 | 0.36 | 8.79 | 0.00 | 87 | 1003.1 |